Location: Downe
(51.3167°N, 0.0500°E)
Time: 15:25:48
(UTC+00:00)

Cosmos 2058 - Pass Details

Date: 17 November 2019
Orbit: 561 x 585 km, 82.5° (Epoch: 08 December)

Event Time Altitude Azimuth Distance (km) Brightness Sun altitude
Exits shadow 04:05:28 34° 91° (E) 969 4.5 -30.1°
Drops below altitude 10° 04:09:17 10° 27° (NNE) 1,911 5.9 -29.5°
Sets 04:11:37 0° 18° (NNE) 2,813 6.7 -29.1°
